GPS BIIF-4

Last updated on Sat Aug 15 2026 00:02:48 GMT+0000 (Coordinated Universal Time)

1 39166U 13023A 26226.01833713 -.00000005 00000+0 00000+0 0 9992 2 39166 54.4622 266.6140 0141614 51.1370 310.1896 2.00563264 97045
UTC large
Height (km)
Speed (km/s)
/
Latitude / Longitude
Inclination (degrees)
Orbital Period (minutes)
Azimuth
Elevation
Range (km)
Doppler Factor

Next 0 passes for location: London (51.5072 / 0.1276)

No passes found over London.
GPS BIIF-4